Regional Weather Roundup
Issued by NWS State College, PA

Home | Current Version | Previous Version | Graphics & Text | Print | Product List | Glossary On
Versions: 1 2 3 4 5 6 7 8 9 10 11 12 13 14 15 16 17 18 19 20 21 22 23 24 25 26 27 28 29 30 31 32 33 34 35 36 37 38 39 40 41 42 43 44 45 46 47 48 49 50
000
ASUS41 KCTP 040010
RWRCTP

REGIONAL WEATHER ROUNDUP
NATIONAL WEATHER SERVICE STATE COLLEGE PA
800 PM EDT MON OCT 03 2022

Note: "fair" indicates few or no clouds below 12,000 feet with no
significant weather and/or obstructions to visibility.

* = STATION THAT DOES NOT REPORT PRECIPITATION /E.G. RAIN...SNOW...ETC/
    THUNDER OR FOG.

PAZ002>004-007>009-013>016-020>023-029>032-040100-
WESTERN PENNSYLVANIA

CITY           SKY/WX    TMP DP  RH WIND       PRES   REMARKS
ERIE           MOCLDY    51  41  68 CALM      30.29S
MEADVILLE      MOCLDY    49  40  71 N7        30.28S
FRANKLIN       MOCLDY    49  38  65 NE8       30.27S
NEW CASTLE     FAIR      55  43  63 N5          N/A
BEAVER COUNTY    N/A     57  35  42 CALM      30.26S
BUTLER         MOCLDY    52  40  63 NE5       30.26S
PITTSBURGH INT MOCLDY    54  44  69 CALM      30.24S
PITTSBURGH     MOCLDY    56  37  49 CALM      30.24S
INDIANA*       CLEAR     48  46  93 CALM      30.28S
LATROBE        CLEAR     50  48  93 CALM      30.25S
WASHINGTON CO* MOCLDY    50  45  83 CALM      30.27S
$$

PAZ004>006-010>012-017>019-024>028-033>037-041-042-045-046-049>053-040100-
CENTRAL PENNSYLVANIA

CITY           SKY/WX    TMP DP  RH WIND       PRES   REMARKS
BRADFORD       MOCLDY    47  31  53 MISG      30.26R
ST MARYS       NOT AVBL
DUBOIS         MOCLDY    51  32  48 CALM      30.24S
CLEARFIELD     MOCLDY    48  42  80 N5        30.24S
JOHNSTOWN      MOCLDY    48  40  73 N5        30.22F
SOMERSET       FAIR      45  36  70 CALM      30.23F
ALTOONA        MOCLDY    47  42  83 CALM      30.24R
STATE COLLEGE  CLEAR     48  39  71 N3        30.24S
REEDSVILLE     FAIR      50  43  76 CALM      30.23S
WELLSBORO      FAIR      45  37  76 N9        30.24F
WILLIAMSPORT   MOCLDY    51  42  71 W3        30.22S
SELINSGROVE    MOCLDY    48  45  89 CALM      30.22F
FT INDIANTOWN  CLOUDY    48  43  81 CALM      30.18F
CAPITAL CITY   CLOUDY    54  40  59 NW5       30.21S
HARRISBURG     LGT RAIN  52  43  71 NW6       30.20S
YORK           CLOUDY    49  43  80 W3        30.20F
$$

PAZ038>040-043-044-047-048-054-055-060>062-067>071-040100-
EASTERN PENNSYLVANIA

CITY           SKY/WX    TMP DP  RH WIND       PRES   REMARKS
TOWANDA        CLEAR     48  46  93 CALM      30.27F
SCRANTON       MOCLDY    52  36  54 NE7       30.21S
MOUNT POCONO   CLOUDY    44  36  73 CALM      30.19S
HAZLETON       CLOUDY    50  36  57 N3        30.23S
LEHIGHTON      CLOUDY    46  43  87 CALM      30.22R
ALLENTOWN      LGT RAIN  49  37  63 NE6       30.20S
QN CITY/ALNTWN LGT RAIN  50  37  62 NE6       30.22R
QUAKERTOWN*    CLOUDY    46  43  87 N8G14     30.20R
PERKASIE*      RAIN      45  45 100 N9        30.19S
DOYLESTOWN     LGT RAIN  47  41  80 N9        30.18R
READING        LGT RAIN  49  46  90 CALM      30.19S
LANCASTER      LGT RAIN  49  46  90 CALM      30.20F
COATESVILLE    DRIZZLE   45  43  93 N6G12     30.20S
WEST CHESTER   NOT AVBL
POTTSTOWN      LGT RAIN  45  41  86 N6        30.21S
BLUE BELL      LGT RAIN  46  44  92 N6        30.19S
NORTH PHILA    LGT RAIN  48  43  82 N14       30.19R
PHILADELPHIA   LGT RAIN  50  44  80 N15       30.17S
$$



USA.gov is the U.S. government's official web portal to all federal, state and local government web resources and services.